Powrót do katalogu

STARLINK-31726

AktywnyŁącznośćVLEO
NORAD 59739·PAYLOAD·🇺🇸 United States

Wystrzelony May 13, 2024 z Cape Canaveral Space Force Station

Loading…

Następne Przeloty (najbliższe 24 godziny)

TLE

ŚwieżeSource: CelesTrak SupGP

Epoka: Sep 14, 2026, 22:17 UTC

1 59739C 24090K   26257.92895833 -.00015773  00000+0 -57115-3 0  2570
2 59739  42.9996 194.4656 0000937 261.8236 160.6872 15.27596057    14

Śledź STARLINK-31726 w czasie rzeczywistym z AllMySat

Download on the App Store